TimeCST,TemperatureF,Dew PointF,Humidity,Sea Level PressureIn,VisibilityMPH,Wind Direction,Wind SpeedMPH,Gust SpeedMPH,PrecipitationIn,Events,Conditions,WindDirDegrees,DateUTC
12:14 AM,33.8,30.2,87,29.84,10.0,SW,3.5,-,N/A,,Clear,220,2013-11-14 06:14:00
12:34 AM,33.8,30.2,87,29.83,10.0,WSW,3.5,-,N/A,,Scattered Clouds,240,2013-11-14 06:34:00
12:53 AM,33.8,30.2,87,29.83,10.0,Calm,Calm,-,N/A,,Mostly Cloudy,0,2013-11-14 06:53:00
1:14 AM,35.6,32.0,87,29.83,10.0,Calm,Calm,-,N/A,,Mostly Cloudy,0,2013-11-14 07:14:00
1:34 AM,33.8,32.0,93,29.82,10.0,Calm,Calm,-,N/A,,Overcast,0,2013-11-14 07:34:00
1:54 AM,33.8,32.0,93,29.82,10.0,Calm,Calm,-,N/A,,Overcast,0,2013-11-14 07:54:00
2:14 AM,33.8,30.2,87,29.82,10.0,Calm,Calm,-,N/A,,Mostly Cloudy,0,2013-11-14 08:14:00
2:34 AM,33.8,30.2,87,29.82,10.0,Calm,Calm,-,N/A,,Scattered Clouds,0,2013-11-14 08:34:00
2:54 AM,33.8,30.2,87,29.81,10.0,Calm,Calm,-,N/A,,Mostly Cloudy,0,2013-11-14 08:54:00
3:14 AM,33.8,30.2,87,29.82,10.0,Calm,Calm,-,N/A,,Mostly Cloudy,0,2013-11-14 09:14:00
3:34 AM,33.8,30.2,87,29.81,10.0,Calm,Calm,-,N/A,,Scattered Clouds,0,2013-11-14 09:34:00
3:54 AM,33.8,30.2,87,29.82,10.0,Calm,Calm,-,N/A,,Mostly Cloudy,0,2013-11-14 09:54:00
4:14 AM,33.8,32.0,93,29.80,10.0,Calm,Calm,-,N/A,,Scattered Clouds,0,2013-11-14 10:14:00
4:34 AM,32.0,28.4,87,29.80,7.0,Calm,Calm,-,N/A,,Clear,0,2013-11-14 10:34:00
4:54 AM,32.0,30.2,93,29.79,7.0,Calm,Calm,-,N/A,,Clear,0,2013-11-14 10:54:00
5:13 AM,30.2,28.4,93,29.80,7.0,Calm,Calm,-,N/A,,Clear,0,2013-11-14 11:13:00
5:34 AM,30.2,28.4,93,29.79,7.0,Calm,Calm,-,N/A,,Clear,0,2013-11-14 11:34:00
5:54 AM,30.2,28.4,93,29.80,7.0,South,3.5,-,N/A,,Clear,180,2013-11-14 11:54:00
6:14 AM,32.0,30.2,93,29.81,10.0,Calm,Calm,-,N/A,,Clear,0,2013-11-14 12:14:00
6:34 AM,32.0,30.2,93,29.81,10.0,Calm,Calm,-,N/A,,Clear,0,2013-11-14 12:34:00
6:54 AM,30.2,28.4,93,29.81,7.0,Calm,Calm,-,N/A,,Clear,0,2013-11-14 12:54:00
7:14 AM,32.0,30.2,93,29.82,10.0,Calm,Calm,-,N/A,,Clear,0,2013-11-14 13:14:00
7:34 AM,32.0,30.2,93,29.82,10.0,Calm,Calm,-,N/A,,Scattered Clouds,0,2013-11-14 13:34:00
7:54 AM,32.0,32.0,100,29.81,7.0,Calm,Calm,-,N/A,,Scattered Clouds,0,2013-11-14 13:54:00
8:14 AM,33.8,32.0,93,29.82,10.0,Calm,Calm,-,N/A,,Clear,0,2013-11-14 14:14:00
8:34 AM,33.8,32.0,93,29.81,10.0,SSW,3.5,-,N/A,,Scattered Clouds,210,2013-11-14 14:34:00
8:53 AM,33.8,32.0,93,29.81,10.0,SW,3.5,-,N/A,,Scattered Clouds,220,2013-11-14 14:53:00
9:14 AM,35.6,32.0,87,29.80,10.0,South,3.5,-,N/A,,Clear,190,2013-11-14 15:14:00
9:34 AM,35.6,32.0,87,29.80,10.0,Calm,Calm,-,N/A,,Clear,0,2013-11-14 15:34:00
9:54 AM,35.6,32.0,87,29.81,10.0,SW,3.5,-,N/A,,Clear,220,2013-11-14 15:54:00
10:14 AM,35.6,32.0,87,29.82,10.0,Calm,Calm,-,N/A,,Clear,0,2013-11-14 16:14:00
10:34 AM,37.4,32.0,81,29.82,10.0,Calm,Calm,-,N/A,,Clear,0,2013-11-14 16:34:00
10:54 AM,37.4,32.0,81,29.81,10.0,SW,3.5,-,N/A,,Clear,220,2013-11-14 16:54:00
11:14 AM,39.2,32.0,75,29.80,10.0,SSW,3.5,-,N/A,,Scattered Clouds,200,2013-11-14 17:14:00
11:34 AM,41.0,32.0,70,29.79,10.0,South,4.6,-,N/A,,Clear,170,2013-11-14 17:34:00
11:54 AM,41.0,32.0,70,29.79,10.0,South,4.6,-,N/A,,Clear,180,2013-11-14 17:54:00
12:14 PM,44.6,33.8,66,29.78,10.0,South,3.5,-,N/A,,Clear,180,2013-11-14 18:14:00
12:34 PM,46.4,32.0,57,29.76,10.0,South,4.6,-,N/A,,Clear,190,2013-11-14 18:34:00
12:54 PM,48.2,33.8,58,29.76,10.0,SW,6.9,-,N/A,,Clear,220,2013-11-14 18:54:00
1:13 PM,48.2,33.8,58,29.75,10.0,SSW,6.9,-,N/A,,Clear,210,2013-11-14 19:13:00
1:34 PM,50.0,33.8,54,29.74,10.0,SSW,4.6,-,N/A,,Clear,200,2013-11-14 19:34:00
1:54 PM,50.0,33.8,54,29.74,10.0,SW,5.8,-,N/A,,Clear,220,2013-11-14 19:54:00
2:14 PM,50.0,33.8,54,29.74,10.0,SW,6.9,-,N/A,,Clear,230,2013-11-14 20:14:00
2:34 PM,50.0,33.8,54,29.73,10.0,WSW,5.8,-,N/A,,Clear,240,2013-11-14 20:34:00
2:54 PM,50.0,35.6,58,29.73,10.0,SSW,6.9,-,N/A,,Clear,200,2013-11-14 20:54:00
3:14 PM,50.0,35.6,58,29.73,10.0,SSW,8.1,-,N/A,,Clear,200,2013-11-14 21:14:00
3:34 PM,50.0,35.6,58,29.73,10.0,SSW,8.1,-,N/A,,Clear,210,2013-11-14 21:34:00
3:54 PM,48.2,33.8,58,29.73,10.0,SSW,8.1,-,N/A,,Clear,210,2013-11-14 21:54:00
4:14 PM,46.4,33.8,62,29.73,10.0,SW,3.5,-,N/A,,Clear,230,2013-11-14 22:14:00
4:34 PM,44.6,33.8,66,29.74,10.0,SSW,4.6,-,N/A,,Clear,210,2013-11-14 22:34:00
4:53 PM,44.6,33.8,66,29.75,10.0,SW,3.5,-,N/A,,Scattered Clouds,230,2013-11-14 22:53:00
5:14 PM,42.8,33.8,70,29.75,10.0,Calm,Calm,-,N/A,,Mostly Cloudy,0,2013-11-14 23:14:00
5:34 PM,41.0,32.0,70,29.76,10.0,Calm,Calm,-,N/A,,Scattered Clouds,0,2013-11-14 23:34:00
5:54 PM,37.4,32.0,81,29.76,10.0,Calm,Calm,-,N/A,,Clear,0,2013-11-14 23:54:00
6:14 PM,37.4,32.0,81,29.76,10.0,Calm,Calm,-,N/A,,Scattered Clouds,0,2013-11-15 00:14:00
6:34 PM,37.4,32.0,81,29.77,10.0,Calm,Calm,-,N/A,,Scattered Clouds,0,2013-11-15 00:34:00
6:54 PM,37.4,32.0,81,29.77,10.0,WSW,3.5,-,N/A,,Clear,250,2013-11-15 00:54:00
7:14 PM,37.4,32.0,81,29.77,10.0,Calm,Calm,-,N/A,,Clear,0,2013-11-15 01:14:00
7:34 PM,35.6,32.0,87,29.78,10.0,West,4.6,-,N/A,,Clear,280,2013-11-15 01:34:00
7:54 PM,35.6,32.0,87,29.78,10.0,Calm,Calm,-,N/A,,Clear,0,2013-11-15 01:54:00
8:14 PM,35.6,32.0,87,29.79,10.0,Calm,Calm,-,N/A,,Clear,0,2013-11-15 02:14:00
8:34 PM,32.0,28.4,87,29.79,10.0,West,3.5,-,N/A,,Clear,280,2013-11-15 02:34:00
8:54 PM,33.8,30.2,87,29.80,10.0,Calm,Calm,-,N/A,,Clear,0,2013-11-15 02:54:00
9:14 PM,33.8,30.2,87,29.80,10.0,Calm,Calm,-,N/A,,Clear,0,2013-11-15 03:14:00
9:34 PM,33.8,30.2,87,29.80,10.0,Calm,Calm,-,N/A,,Clear,0,2013-11-15 03:34:00
9:54 PM,33.8,30.2,87,29.80,10.0,West,3.5,-,N/A,,Clear,270,2013-11-15 03:54:00
10:13 PM,33.8,30.2,87,29.80,10.0,Calm,Calm,-,N/A,,Clear,0,2013-11-15 04:13:00
10:34 PM,32.0,30.2,93,29.80,10.0,Calm,Calm,-,N/A,,Clear,0,2013-11-15 04:34:00
10:54 PM,32.0,30.2,93,29.80,10.0,Calm,Calm,-,N/A,,Clear,0,2013-11-15 04:54:00
11:14 PM,32.0,28.4,87,29.79,10.0,Calm,Calm,-,N/A,,Clear,0,2013-11-15 05:14:00
11:34 PM,28.4,26.6,93,29.79,7.0,Calm,Calm,-,N/A,,Clear,0,2013-11-15 05:34:00
11:54 PM,30.2,26.6,86,29.79,7.0,Calm,Calm,-,N/A,,Clear,0,2013-11-15 05:54:00